Terminal Aerodrome Forecast
Issued by NWS Duluth, MN

Home | Current Version | Previous Version | Text Only | Print | Product List | Glossary On
Versions: 1 2 3 4 5 6 7 8 9 10 11 12 13 14 15 16 17
781
FTUS43 KDLH 270443 AAE
TAFDLH
TAF AMD
KDLH 270443Z 2705/2724 VRB03KT 1 1/2SM BR OVC004
      TEMPO 2705/2709 1/2SM FG OVC003
     FM270900 VRB03KT 1/2SM FG OVC003
     FM271500 35004KT 5SM BR BKN010
     FM271700 05005KT P6SM SCT010 BKN070
     FM271900 07005KT P6SM SCT010 BKN090
     FM272200 09006KT P6SM SCT010=

USA.gov is the U.S. government's official web portal to all federal, state and local government web resources and services.